Regional Weather Roundup
Issued by NWS Cleveland, OH

Home | Current Version | Previous Version | Text Only | Print | Product List | Glossary Off
Versions: 1 2 3 4 5 6 7 8 9 10 11 12 13 14 15 16 17 18 19 20 21 22 23 24 25 26 27 28 29 30 31 32 33 34 35 36 37 38 39 40 41 42 43 44 45 46 47 48 49 50

000
ASUS41 KCLE 192302
RWRCLE
OHIO REGIONAL WEATHER ROUNDUP
NATIONAL WEATHER SERVICE CLEVELAND, OH
600 PM EST FRI DEC 19 2014

NOTE: "FAIR" INDICATES FEW OR NO CLOUDS BELOW 12,000 FEET WITH NO
SIGNIFICANT WEATHER AND/OR OBSTRUCTIONS TO VISIBILITY.

OHZ001>008-015>018-024>027-034-035-043-044-200000-
   NORTHWEST OHIO

CITY           SKY/WX    TMP DP  RH WIND       PRES   REMARKS
DEFIANCE       CLOUDY    31  22  69 CALM      30.31R
FINDLAY        CLOUDY    31  22  69 W7        30.28R WCI  24
TOLEDO EXPRESS CLOUDY    30  25  81 CALM      30.29R
TOLEDO EXEC    CLOUDY    30  24  78 E3        30.30R
LIMA           CLOUDY    32  24  72 W3        30.29R
$$

OHZ009>014-019>023-028>033-038-089-200000-
   NORTHEAST OHIO

CITY           SKY/WX    TMP DP  RH WIND       PRES   REMARKS
CLE-HOPKINS    CLOUDY    30  21  69 NW5       30.30R WCI  25
CLE-LAKEFRONT  CLOUDY    31  20  63 SW7       30.28R WCI  24
CUY CO. ARPT   CLOUDY    32  23  69 W8        30.27R WCI  25
LORAIN-ELYRIA  CLOUDY    29  22  75 W5        30.29R WCI  24
ASHTABULA      CLOUDY    29  20  69 W5        30.26R WCI  24
AKRON-CANTON   CLOUDY    30  23  75 NW6       30.24R WCI  24
WOOSTER        CLOUDY    29  23  78 NW5       30.26R WCI  24
MANSFIELD      CLOUDY    28  22  78 VRB3      30.25R
YOUNGSTOWN     CLOUDY    29  21  72 NW6       30.23R WCI  23
$$

OHZ042-051>053-060>062-070>072-077>081-200000-
  SOUTHWEST OHIO

CITY           SKY/WX    TMP DP  RH WIND       PRES   REMARKS
CINC-COVINGTON CLOUDY    30  19  63 W3        30.29S
CINC-LUNKEN    CLOUDY    30  22  72 CALM      30.33S
HAMILTON       CLOUDY    32  22  66 CALM      30.32R
DAYTON         CLOUDY    30  23  75 CALM      30.31R
WRIGHT-PAT AFB CLOUDY    30  23  74 SW3       30.31R
DAYTON GENERAL CLOUDY    30  22  72 CALM      30.29R
WILMINGTON     CLOUDY    29  20  69 CALM      30.29R
$$

OHZ036-037-039>041-045>050-054>059-063>069-073>076-082>088-200000-
  CENTRAL AND SOUTHEAST OHIO

CITY           SKY/WX    TMP DP  RH WIND       PRES   REMARKS
COLUMBUS       CLOUDY    30  22  72 CALM      30.29R
OSU AIRPORT    CLOUDY    30  22  72 CALM      30.28R
BOLTON FIELD   CLOUDY    30  25  80 CALM      30.29R
RICKENBACK AFB CLOUDY    30  23  75 CALM      30.29R
NEWARK         CLOUDY    31  23  72 CALM      30.28R
MARION         CLOUDY    30  21  69 W5        30.28R WCI  25
LANCASTER      CLOUDY    43  23  45 SW3       30.29R
ZANESVILLE     CLOUDY    30  24  78 CALM      30.28R
NEW PHILLY     CLOUDY    31  23  72 W3        30.27R
$$


USA.gov is the U.S. government's official web portal to all federal, state and local government web resources and services.